EW0642 Weather Reports


Display with metric or nautical units.
time (UTC)temp
F
wind
direction
speed
MPH
gust
MPH
rain 1hr
in
rain 24hr
in
rain mn
in
humidity
%
barometer
mb
20260502170505 62 319 2.0 5.0 0.00 0.00 0.00 41 1013.5
20260502164004 60 339 2.0 10.0 0.00 0.00 0.00 42 1013.7
20260502163505 60 325 3.0 10.0 0.00 0.00 0.00 43 1013.7
20260502163004 60 328 3.0 10.0 0.00 0.00 0.00 44 1013.8
20260502162526 60 348 2.0 7.0 0.00 0.00 0.00 43 1013.9
20260502162004 60 357 2.0 5.0 0.00 0.00 0.00 47 1013.8
20260502161504 60 317 3.0 9.0 0.00 0.00 0.00 44 1013.9
20260502161004 60 315 2.0 9.0 0.00 0.00 0.00 43 1013.9
20260502160504 60 29 2.0 5.0 0.00 0.00 0.00 46 1013.8
20260502151504 58 351 2.0 8.0 0.00 0.00 0.00 50 1014.4
20260502151004 58 354 2.0 8.0 0.00 0.00 0.00 52 1014.3
20260502150525 57 13 2.0 6.0 0.00 0.00 0.00 52 1014.2
20260502130525 51 316 3.0 9.0 0.00 0.00 0.00 66 1014.0
20260502123525 52 313 2.0 11.0 0.00 0.00 0.00 67 1014.1
20260502123004 52 314 3.0 11.0 0.00 0.00 0.00 66 1014.1
20260502122525 51 330 3.0 10.0 0.00 0.00 0.00 66 1014.2
20260502122025 51 335 2.0 7.0 0.00 0.00 0.00 68 1014.3
20260502121504 50 310 2.0 10.0 0.00 0.00 0.00 68 1014.3
20260502121025 50 304 4.0 11.0 0.00 0.00 0.00 68 1014.2
20260502120525 50 311 3.0 11.0 0.00 0.00 0.00 68 1014.1
20260502115504 50 310 2.0 9.0 0.00 0.00 0.00 68 1014.1
20260502115004 50 308 3.0 9.0 0.00 0.00 0.00 68 1014.1
20260502114525 50 309 2.0 9.0 0.00 0.00 0.00 68 1014.1
20260502114025 50 316 2.0 6.0 0.00 0.00 0.00 68 1014.1
20260502113504 50 315 3.0 8.0 0.00 0.00 0.00 68 1014.1
20260502113004 50 314 3.0 14.0 0.00 0.00 0.00 68 1014.2
20260502112525 50 312 4.0 14.0 0.00 0.00 0.00 68 1014.1
20260502112025 50 319 3.0 10.0 0.00 0.00 0.00 67 1014.0
20260502111527 50 329 3.0 10.0 0.00 0.00 0.00 68 1014.0
20260502111025 50 328 3.0 11.0 0.00 0.00 0.00 68 1014.0
20260502110525 50 326 4.0 11.0 0.00 0.00 0.00 68 1013.9
20260502110025 50 313 3.0 10.0 0.00 0.00 0.00 69 1013.8
20260502105525 50 306 3.0 8.0 0.00 0.00 0.00 69 1013.9
20260502105004 50 316 2.0 7.0 0.00 0.00 0.00 69 1013.7
20260502104504 50 321 1.0 4.0 0.00 0.00 0.00 69 1013.7
20260502104004 50 288 1.0 4.0 0.00 0.00 0.00 69 1013.7
20260502103504 50 293 2.0 5.0 0.00 0.00 0.00 69 1013.6
20260502103004 50 301 3.0 8.0 0.00 0.00 0.00 68 1013.6
20260502102525 50 294 3.0 8.0 0.00 0.00 0.00 67 1013.5
20260502102004 50 295 3.0 7.0 0.00 0.00 0.00 67 1013.4
20260502101504 50 293 3.0 14.0 0.00 0.00 0.00 66 1013.3
20260502101025 51 283 4.0 14.0 0.00 0.00 0.00 66 1013.3
20260502100504 51 282 4.0 11.0 0.00 0.00 0.00 66 1013.3
20260502091504 52 317 3.0 10.0 0.00 0.00 0.00 70 1012.5
20260502091025 51 312 2.0 10.0 0.00 0.00 0.00 71 1012.5
20260502090505 51 306 2.0 8.0 0.00 0.00 0.00 72 1012.5
20260502071504 52 30 0.0 1.0 0.00 0.00 0.00 80 1012.2
20260502071004 52 30 0.0 1.0 0.00 0.00 0.00 80 1012.2
20260502070525 52 30 0.0 1.0 0.00 0.00 0.00 80 1012.1
20260502070025 52 30 0.0 1.0 0.00 0.00 0.00 80 1012.1
20260502065504 52 6 0.0 2.0 0.00 0.00 0.00 80 1012.0
20260502065004 52 344 0.0 2.0 0.00 0.00 0.00 80 1011.8
20260502064526 52 331 1.0 2.0 0.00 0.00 0.00 80 1012.0
20260502064004 52 326 1.0 4.0 0.00 0.00 0.00 81 1011.9
20260502063525 52 325 2.0 4.0 0.00 0.00 0.00 81 1011.9
20260502063025 52 327 1.0 4.0 0.00 0.00 0.00 81 1012.0
20260502062526 53 309 1.0 3.0 0.00 0.00 0.00 81 1012.2
20260502062004 53 281 1.0 3.0 0.00 0.00 0.00 81 1012.3
20260502061004 53 243 0.0 1.0 0.00 0.00 0.00 80 1012.5
20260502060504 54 243 0.0 1.0 0.00 0.00 0.00 80 1012.4
20260502060026 54 243 0.0 1.0 0.00 0.00 0.00 79 1012.3
20260502055504 54 239 0.0 2.0 0.00 0.00 0.00 79 1012.4
20260502055025 54 236 0.0 2.0 0.00 0.00 0.00 79 1012.5
20260502054504 54 0 0.0 0.0 0.00 0.00 0.00 79 1012.5
20260502054005 54 192 0.0 2.0 0.00 0.00 0.00 79 1012.4
20260502053525 54 192 0.0 2.0 0.00 0.00 0.00 79 1012.4
20260502053004 54 192 0.0 1.0 0.00 0.00 0.00 78 1012.6
20260502052525 54 192 0.0 1.0 0.00 0.00 0.00 78 1012.7
20260502052005 55 192 0.0 2.0 0.00 0.00 0.00 78 1012.6
20260502051504 55 192 0.0 2.0 0.00 0.00 0.00 77 1012.7
20260502051004 55 191 0.0 3.0 0.00 0.00 0.00 77 1012.6
20260502050504 55 223 1.0 3.0 0.00 0.00 0.00 77 1012.9
20260502050005 55 263 1.0 4.0 0.00 0.00 0.00 77 1013.0
20260502045504 55 266 1.0 4.0 0.00 0.00 0.00 78 1013.0
20260502045004 55 206 1.0 5.0 0.00 0.00 0.00 77 1013.0
20260502044505 56 217 1.0 7.0 0.00 0.00 0.00 78 1012.9
20260502044025 56 247 2.0 7.0 0.00 0.00 0.00 77 1012.8
20260502043526 56 258 2.0 7.0 0.00 0.00 0.00 77 1012.9
20260502043025 56 250 2.0 4.0 0.00 0.00 0.00 77 1012.7
20260502042525 56 251 1.0 4.0 0.00 0.00 0.00 77 1012.7
20260502042004 56 216 2.0 7.0 0.00 0.00 0.00 77 1012.6
20260502041504 57 199 3.0 7.0 0.00 0.00 0.00 77 1012.4
20260502041025 57 191 2.0 7.0 0.00 0.00 0.00 78 1012.3
20260502040504 57 185 2.0 7.0 0.00 0.00 0.00 77 1012.2
20260502040004 57 180 2.0 6.0 0.00 0.00 0.00 78 1012.1
20260502035526 57 178 1.0 6.0 0.00 0.00 0.00 78 1012.1
20260502035004 57 175 2.0 7.0 0.00 0.00 0.00 78 1012.1
20260502034504 57 158 3.0 8.0 0.00 0.00 0.00 78 1012.0
20260502034025 57 136 3.0 10.0 0.00 0.00 0.00 78 1011.9
20260502033525 57 145 3.0 10.0 0.00 0.00 0.00 78 1011.8
20260502033025 57 156 2.0 6.0 0.00 0.00 0.00 78 1011.9
20260502032505 57 157 2.0 11.0 0.00 0.00 0.00 77 1011.9
20260502032004 57 159 3.0 11.0 0.00 0.00 0.00 77 1011.7
20260502031504 57 161 3.0 10.0 0.00 0.00 0.00 77 1011.7
20260502031025 57 150 4.0 13.0 0.00 0.00 0.00 77 1011.6
20260502030525 57 153 3.0 13.0 0.00 0.00 0.00 77 1011.5
20260502030025 57 160 3.0 14.0 0.00 0.00 0.00 77 1011.6
20260502025526 57 153 3.0 14.0 0.00 0.00 0.00 77 1011.6
20260502025004 57 162 2.0 8.0 0.00 0.00 0.00 77 1011.7
20260502024504 57 139 3.0 10.0 0.00 0.00 0.00 77 1011.7
20260502024004 58 138 4.0 11.0 0.00 0.00 0.00 77 1011.6
20260502023504 58 160 3.0 11.0 0.00 0.00 0.00 76 1011.8
20260502023004 58 161 3.0 11.0 0.00 0.00 0.00 76 1011.8
20260502022504 58 160 3.0 11.0 0.00 0.00 0.00 74 1011.8
20260502022004 58 157 2.0 11.0 0.00 0.00 0.00 73 1011.9
20260502021504 57 158 2.0 7.0 0.00 0.00 0.00 71 1011.9
20260502021005 57 164 2.0 7.0 0.00 0.00 0.00 69 1012.0
20260502020525 57 149 2.0 7.0 0.00 0.00 0.00 68 1011.9
20260502020025 57 135 2.0 6.0 0.00 0.00 0.00 68 1011.9
20260502015525 58 144 2.0 7.0 0.00 0.00 0.00 67 1011.9
20260502015004 58 148 2.0 10.0 0.00 0.00 0.00 66 1011.8
20260502014504 58 148 2.0 10.0 0.00 0.00 0.00 66 1011.8
20260502014004 58 133 3.0 7.0 0.00 0.00 0.00 66 1011.8
20260502013504 58 131 3.0 8.0 0.00 0.00 0.00 66 1011.8
20260502013025 58 148 2.0 8.0 0.00 0.00 0.00 66 1011.7
20260502012504 58 145 3.0 7.0 0.00 0.00 0.00 65 1011.6
20260502012025 58 128 3.0 11.0 0.00 0.00 0.00 66 1011.7
20260502011505 58 140 2.0 11.0 0.00 0.00 0.00 66 1011.6
20260502011025 58 161 2.0 6.0 0.00 0.00 0.00 66 1011.4
20260502010504 58 150 2.0 7.0 0.00 0.00 0.00 66 1011.3
20260502010004 58 128 2.0 7.0 0.00 0.00 0.00 65 1011.4
20260502005525 58 147 2.0 7.0 0.00 0.00 0.00 64 1011.4
20260502005025 58 177 3.0 9.0 0.00 0.00 0.00 64 1011.4
20260502004524 58 160 2.0 9.0 0.00 0.00 0.00 63 1011.2
20260502004004 58 146 2.0 9.0 0.00 0.00 0.00 63 1011.1
20260502003525 58 142 3.0 9.0 0.00 0.00 0.00 61 1011.0
20260502003004 58 148 2.0 7.0 0.00 0.00 0.00 61 1011.1
20260502002506 58 150 2.0 8.0 0.00 0.00 0.00 60 1011.1
20260502002004 58 150 2.0 8.0 0.00 0.00 0.00 59 1011.0
20260502001504 58 160 2.0 7.0 0.00 0.00 0.00 58 1011.2
20260502001025 58 164 2.0 7.0 0.00 0.00 0.00 57 1011.2
20260502000525 58 144 2.0 8.0 0.00 0.00 0.00 56 1011.0
20260502000025 59 139 3.0 8.0 0.00 0.00 0.00 55 1010.7
20260501235504 59 152 2.0 8.0 0.00 0.00 0.00 54 1010.6
20260501235025 59 138 2.0 8.0 0.00 0.00 0.00 54 1010.7
20260501234525 60 131 3.0 9.0 0.00 0.00 0.00 52 1010.8
20260501234004 60 133 3.0 9.0 0.00 0.00 0.00 51 1010.8
20260501233525 60 146 2.0 8.0 0.00 0.00 0.00 50 1010.8
20260501233004 60 159 2.0 7.0 0.00 0.00 0.00 50 1010.7
20260501232503 60 121 1.0 7.0 0.00 0.00 0.00 50 1010.7
20260501232025 61 125 1.0 7.0 0.00 0.00 0.00 50 1010.9
20260501231526 61 126 2.0 8.0 0.00 0.00 0.00 49 1010.7
20260501231004 61 141 2.0 8.0 0.00 0.00 0.00 48 1010.7
20260501230525 61 161 3.0 8.0 0.00 0.00 0.00 48 1010.7
20260501230004 62 170 3.0 10.0 0.00 0.00 0.00 47 1010.7
20260501225504 62 148 4.0 14.0 0.00 0.00 0.00 46 1010.7
20260501225004 62 134 4.0 14.0 0.00 0.00 0.00 46 1010.6
20260501224504 63 138 4.0 16.0 0.00 0.00 0.00 47 1010.6
20260501224025 63 135 4.0 16.0 0.00 0.00 0.00 46 1010.8
20260501223504 63 134 2.0 6.0 0.00 0.00 0.00 47 1010.7
20260501223025 64 153 3.0 10.0 0.00 0.00 0.00 47 1010.7
20260501222525 64 146 4.0 11.0 0.00 0.00 0.00 46 1010.8
20260501222004 64 124 3.0 11.0 0.00 0.00 0.00 47 1010.8
20260501221525 64 132 2.0 8.0 0.00 0.00 0.00 46 1011.0
20260501221004 65 156 2.0 9.0 0.00 0.00 0.00 46 1010.9
20260501220525 65 147 2.0 9.0 0.00 0.00 0.00 49 1010.8
20260501220025 65 144 3.0 9.0 0.00 0.00 0.00 47 1010.9
20260501215525 64 136 3.0 9.0 0.00 0.00 0.00 48 1011.0
20260501215004 64 126 3.0 8.0 0.00 0.00 0.00 49 1010.9
20260501214504 64 135 3.0 12.0 0.00 0.00 0.00 48 1010.9
20260501214004 64 133 4.0 12.0 0.00 0.00 0.00 48 1010.9
20260501213526 64 136 4.0 14.0 0.00 0.00 0.00 49 1010.9
20260501213025 64 146 4.0 14.0 0.00 0.00 0.00 46 1010.9
20260501212504 64 155 4.0 12.0 0.00 0.00 0.00 46 1010.9
20260501212004 64 146 4.0 11.0 0.00 0.01 0.00 45 1010.9
20260501211525 64 137 3.0 10.0 0.00 0.01 0.00 44 1010.9
20260501211025 64 138 4.0 13.0 0.00 0.01 0.00 44 1010.9
20260501210505 64 138 5.0 17.0 0.00 0.01 0.00 45 1010.9
20260501210004 64 137 5.0 17.0 0.00 0.01 0.00 45 1011.0
20260501205525 65 136 4.0 11.0 0.00 0.01 0.00 43 1011.0
20260501205004 65 135 4.0 10.0 0.00 0.01 0.00 43 1011.1
20260501204525 66 140 4.0 12.0 0.00 0.01 0.00 43 1011.1
20260501204025 66 149 4.0 14.0 0.00 0.01 0.00 42 1011.2
20260501203525 66 151 5.0 14.0 0.00 0.01 0.00 42 1011.2
20260501203004 65 150 5.0 12.0 0.00 0.01 0.00 43 1011.2
20260501202525 66 144 4.0 10.0 0.00 0.01 0.00 42 1011.3
20260501202003 66 132 4.0 11.0 0.00 0.01 0.00 40 1011.4
20260501201525 66 125 3.0 11.0 0.00 0.01 0.00 40 1011.5
20260501201024 66 140 3.0 10.0 0.00 0.01 0.00 41 1011.6
20260501200504 66 135 4.0 10.0 0.00 0.01 0.00 43 1011.6
20260501200004 65 128 4.0 12.0 0.00 0.01 0.00 42 1011.7
20260501195525 65 133 4.0 12.0 0.00 0.01 0.00 42 1011.8
20260501195025 65 121 4.0 10.0 0.00 0.01 0.00 42 1011.8
20260501194503 66 118 4.0 13.0 0.00 0.01 0.00 43 1011.9
20260501194025 66 121 4.0 13.0 0.00 0.01 0.00 44 1011.9
20260501193525 66 116 3.0 11.0 0.00 0.01 0.00 44 1012.1
20260501193025 66 115 3.0 10.0 0.00 0.01 0.00 44 1012.1
20260501192525 66 112 3.0 11.0 0.00 0.01 0.00 44 1012.2
20260501192025 65 112 4.0 11.0 0.00 0.01 0.00 42 1012.2
20260501191526 66 125 3.0 10.0 0.00 0.01 0.00 41 1012.2
20260501191004 66 131 2.0 9.0 0.00 0.01 0.00 46 1012.4
20260501190526 65 124 3.0 9.0 0.00 0.01 0.00 44 1012.4
20260501190004 65 125 4.0 10.0 0.00 0.01 0.00 43 1012.6
20260501185504 66 119 3.0 10.0 0.00 0.01 0.00 44 1012.7
20260501185003 66 114 3.0 10.0 0.00 0.01 0.00 41 1012.6
20260501184525 66 142 3.0 10.0 0.00 0.01 0.00 42 1012.7
20260501184004 67 151 3.0 9.0 0.00 0.01 0.00 41 1012.8
20260501183525 66 139 3.0 7.0 0.00 0.01 0.00 44 1013.0
20260501183026 65 129 3.0 9.0 0.00 0.01 0.00 45 1013.0
20260501182504 65 132 4.0 10.0 0.00 0.01 0.00 43 1013.1
20260501182026 65 138 4.0 10.0 0.00 0.01 0.00 44 1013.1
20260501181503 65 115 3.0 12.0 0.00 0.01 0.00 45 1013.1
20260501181025 65 109 4.0 13.0 0.00 0.01 0.00 45 1013.2
20260501180524 65 130 4.0 13.0 0.00 0.01 0.00 43 1013.3
20260501180025 65 127 4.0 14.0 0.00 0.01 0.00 46 1013.3
20260501175525 64 128 4.0 14.0 0.00 0.01 0.00 45 1013.4
20260501175025 65 147 4.0 10.0 0.00 0.01 0.00 43 1013.3
20260501174504 65 138 4.0 12.0 0.00 0.01 0.00 43 1013.3
20260501174025 64 123 4.0 12.0 0.00 0.01 0.00 45 1013.4
20260501173504 64 119 2.0 8.0 0.00 0.01 0.00 44 1013.4
20260501173004 64 133 4.0 12.0 0.00 0.01 0.00 44 1013.5
20260501172504 65 146 4.0 12.0 0.00 0.01 0.00 43 1013.6
20260501172024 65 148 3.0 9.0 0.00 0.01 0.00 42 1013.5
20260501171525 64 131 3.0 8.0 0.00 0.02 0.00 44 1013.5